Simultaneous Nadir Overpasses (SNOs) Predictions

Prediction of SNOs between NOAA-20 and AQUA Satellite Orbit:

Table of predicted SNOs for the next 14.0 days since TLE Epoch: 6/7/2025
Index Date (NOAA-20) Time (NOAA-20) Lat,Lon (NOAA-20) SZA (NOAA-20 ) Date (AQUA) Time (AQUA) Lat,Lon (AQUA) SZA (AQUA ) Distance(km) Time Diff (sec)
1 06/08/2025 11:34:21 -81.30, 119.91 116.16 06/08/2025 11:35:21 -81.29, 119.83 116.19 1.36 60
2 06/08/2025 12:25:05 81.29, -72.48 63.80 06/08/2025 12:24:39 81.29, -72.64 63.83 2.75 26
3 06/10/2025 21:05:17 -81.29, -22.64 116.36 06/10/2025 21:06:23 -81.30, -22.66 116.39 1.11 66
4 06/10/2025 21:56:01 81.29, 144.97 63.60 06/10/2025 21:55:41 81.30, 144.83 63.64 2.34 20
5 06/13/2025 06:36:14 -81.30,-165.61 116.45 06/13/2025 06:37:26 -81.29,-165.76 116.48 2.74 72
6 06/13/2025 07:26:58 81.29, 2.00 63.51 06/13/2025 07:26:43 81.29, 2.08 63.51 1.47 15
7 06/15/2025 16:57:54 81.29,-140.61 63.40 06/15/2025 16:57:44 81.30,-140.49 63.39 2.04 10
8 06/18/2025 02:28:50 81.29, 76.76 63.34 06/18/2025 02:28:45 81.29, 76.71 63.35 0.75 5



Historial Predications of SNOs between NOAA-20 and AQUA
